Wind_Speed
32 34 34 35 36 37 38 38 39 39 38 38 38 37 37 37 36 37 37 37 37 38 40 41 43 43 44 44 45 45 44 44 44 44 44 44 44 44 45 46 46 46 46 47
30 31 32 33 35 36 36 37 37 37 37 36 37 37 37 36 36 35 36 36 36 37 38 39 40 42 43 43 44 45 45 44 44 44 44 45 45 45 46 46 46 46 46 46
29 31 32 33 33 34 35 35 36 36 36 35 36 36 36 36 36 35 36 36 36 36 37 38 39 40 41 42 43 44 45 45 45 45 45 45 46 46 46 46 46 46 46 46
26 28 31 32 31 32 33 34 35 35 35 36 36 36 36 36 36 36 36 36 36 36 37 38 39 39 40 41 42 43 44 44 45 45 45 45 45 46 46 46 46 46 46 46
26 26 28 30 31 31 32 34 35 34 34 35 35 35 35 36 36 36 36 36 37 37 37 38 38 39 39 40 41 42 43 43 44 44 44 45 45 45 45 45 46 46 46 46
27 27 27 28 30 31 31 31 33 34 34 34 34 34 34 34 35 35 36 37 37 37 38 38 38 39 40 40 41 41 42 42 43 43 44 44 45 45 45 45 45 46 46 47
26 27 27 27 28 30 31 30 31 32 33 34 34 34 33 33 33 34 34 36 37 37 37 38 39 40 40 40 41 42 42 42 42 42 43 43 44 44 45 45 45 46 47 47
25 26 27 26 27 28 29 29 30 31 31 32 33 33 33 33 33 33 33 34 35 36 37 37 38 39 40 40 41 42 42 41 42 42 43 43 43 43 44 44 45 45 46 46
24 25 25 26 27 27 28 28 28 28 28 30 31 32 32 33 33 33 33 33 33 34 35 36 37 38 39 40 40 41 41 41 41 41 41 41 41 41 42 42 43 44 44 44
23 24 25 25 26 27 28 29 29 28 28 28 29 30 31 31 32 33 33 33 34 34 34 35 36 37 38 39 40 40 40 40 40 40 40 41 41 41 41 41 41 41 41 41
21 23 24 25 26 26 28 29 30 30 29 29 29 29 29 30 31 31 32 33 34 34 35 35 35 36 37 37 38 39 39 39 40 40 40 40 40 40 40 40 40 40 39 39
21 22 23 23 25 25 26 28 30 31 30 30 30 30 30 30 30 31 31 32 33 33 34 35 35 35 35 36 36 37 38 39 39 40 40 40 40 40 40 40 40 39 39 39
19 20 21 22 24 25 25 27 28 29 30 31 31 30 30 30 31 31 31 32 32 33 34 35 35 35 35 36 36 37 38 39 39 40 40 40 40 40 40 40 40 39 38 38
18 19 20 20 22 24 25 26 27 28 28 29 30 30 29 29 29 30 31 31 32 33 33 34 35 35 36 36 37 38 39 39 39 39 40 39 39 39 39 40 39 38 38 38
18 18 19 19 19 20 22 24 25 26 27 28 28 28 28 28 29 29 30 30 31 32 33 34 34 35 35 36 37 37 37 37 38 38 38 39 39 39 39 38 37 37 37 36
16 16 17 18 18 19 21 22 23 24 26 26 27 28 29 29 29 30 30 30 31 32 33 33 33 34 34 34 34 35 35 35 36 36 36 37 37 37 36 36 36 35 35 35
13 14 15 16 17 18 20 21 23 23 24 25 27 28 29 30 30 31 31 31 32 32 33 33 33 33 33 33 34 33 34 34 34 34 34 35 35 35 34 34 34 33 33 33
11 12 13 15 16 17 18 20 21 22 23 24 25 26 27 28 29 30 30 31 31 31 32 32 32 33 33 34 33 33 33 33 33 33 33 33 33 32 32 32 31 31 31 31
12 12 13 13 14 15 17 19 20 21 22 23 23 24 25 26 27 27 28 28 29 29 30 30 31 31 32 32 32 32 32 32 32 32 32 31 30 30 29 29 28 28 28 27
13 13 13 13 14 14 15 16 18 20 21 21 22 23 24 25 25 26 26 27 27 28 28 28 28 29 29 29 29 29 29 29 29 29 29 29 28 27 27 26 26 25 25 24
14 14 14 15 15 15 15 16 17 18 19 20 21 21 23 24 24 25 25 25 26 26 26 26 27 27 26 26 27 26 26 26 26 26 26 26 25 25 25 25 24 24 23 23
15 15 15 15 15 15 15 16 16 17 18 19 20 20 21 22 23 23 24 24 24 24 24 24 24 24 23 23 23 23 23 23 23 23 23 23 23 22 22 22 22 22 21 21
14 14 14 14 14 15 15 15 16 16 17 18 18 19 19 20 20 21 21 22 22 22 22 21 21 21 20 20 20 21 21 22 22 22 22 21 21 20 20 20 20 20 19 18
14 14 14 14 14 15 15 15 15 16 16 16 16 17 17 17 17 17 17 18 18 19 19 19 19 19 18 18 19 19 19 19 19 19 19 19 18 18 17 17 16 17 16 16
14 14 14 14 14 15 15 15 15 15 15 15 15 14 14 14 15 15 16 16 16 16 17 17 17 17 17 17 18 17 17 16 16 16 15 15 14 14 14 14 14 14 13 13
14 14 14 14 15 15 15 15 15 14 14 14 14 14 14 14 14 14 14 15 15 15 16 16 17 16 16 16 15 15 14 13 13 13 13 12 12 12 12 12 12 11 11 11
14 14 14 15 15 15 15 15 15 14 14 14 13 13 13 13 14 14 14 14 14 14 14 14 14 14 13 13 12 12 11 11 11 11 10 10 9 9 9 9 8 8 8 9
Wind_Direction
220 221 224 226 225 227 229 231 233 233 235 235 236 236 237 237 238 238 237 238 238 239 240 240 241 242 244 245 246 248 250 252 255 257 259 261 264 267 270 273 275 277 278 280
223 223 225 225 225 227 228 230 232 233 233 235 236 237 238 239 239 239 238 238 239 240 241 242 242 243 245 246 248 249 251 253 255 257 260 262 265 268 271 273 275 276 278 280
224 225 228 228 226 228 229 230 232 233 234 234 235 237 239 240 240 240 240 239 240 241 241 242 243 244 245 247 249 251 253 254 256 258 261 263 266 268 270 272 274 277 278 280
224 224 228 228 226 227 229 229 231 234 235 236 237 237 238 240 241 241 240 240 240 241 242 242 243 244 245 248 250 252 254 256 258 260 262 264 266 268 270 272 274 276 278 281
225 227 228 227 227 227 228 229 231 233 235 236 238 238 239 241 242 242 241 240 240 240 241 242 243 245 246 248 250 252 254 256 258 261 263 265 267 268 269 271 274 276 278 280
226 229 230 229 230 229 230 231 232 234 236 237 238 239 240 242 243 243 242 241 241 242 242 243 244 246 248 250 252 253 255 257 259 261 263 265 267 268 270 272 274 276 279 281
229 230 231 231 231 230 231 232 233 235 236 237 238 239 240 241 243 243 243 243 243 243 244 245 246 247 248 251 253 254 256 258 260 262 264 267 268 270 272 274 275 278 281 282
231 231 231 232 233 234 234 234 235 235 235 236 237 238 240 241 242 243 244 244 244 245 246 247 248 249 250 252 253 255 256 258 260 262 265 267 269 270 272 274 276 279 281 283
232 232 232 233 234 235 235 234 234 233 233 234 234 236 238 240 242 243 244 245 246 248 249 249 250 251 253 253 254 255 256 259 261 264 267 268 270 271 272 275 277 280 281 283
234 235 235 237 236 236 235 234 233 233 234 234 234 234 235 237 239 241 242 244 246 248 249 251 252 253 254 255 255 256 257 259 262 265 267 269 270 271 272 274 277 279 281 282
238 239 240 240 240 239 237 237 236 236 236 235 235 235 236 237 239 240 242 244 246 248 250 252 253 254 254 255 256 257 260 262 265 266 267 269 270 272 273 274 276 278 280 280
238 239 240 241 241 241 239 238 238 238 238 237 237 237 238 239 241 243 244 246 248 249 251 252 254 255 255 256 257 259 260 262 265 266 267 268 270 272 273 275 277 279 280 280
238 239 241 240 240 240 240 239 239 238 238 238 238 239 240 241 243 244 245 247 248 250 252 254 255 256 258 259 260 261 262 263 264 265 267 268 270 272 274 276 278 279 280 281
240 243 242 241 241 241 241 239 238 238 237 237 238 239 241 243 244 245 247 248 250 252 254 256 257 259 260 261 262 264 265 266 266 266 267 269 270 272 274 276 276 278 279 280
243 243 241 241 242 242 242 240 239 239 238 237 238 239 242 244 246 248 249 251 254 256 257 258 259 260 261 263 264 266 267 267 266 266 268 270 271 273 275 275 275 277 277 279
245 243 242 242 242 242 241 241 240 240 240 240 240 242 244 247 249 250 252 254 255 256 257 258 259 261 263 265 266 267 267 267 268 269 270 271 273 274 274 274 275 275 276 277
248 245 243 244 245 244 243 241 240 240 240 241 243 244 246 248 249 251 253 255 257 256 256 257 259 261 263 265 267 268 269 269 269 270 271 272 274 274 274 275 275 275 275 276
253 249 248 249 250 249 247 244 242 241 241 242 244 245 247 248 250 252 254 255 256 257 257 258 259 261 264 267 268 269 270 270 270 270 271 273 273 273 274 274 274 275 275 275
258 257 255 255 257 255 250 245 243 243 244 245 247 248 250 251 252 253 254 255 256 257 258 259 261 263 265 266 267 268 269 270 269 270 272 272 272 273 274 273 273 274 274 274
261 263 263 261 263 262 257 251 248 247 247 249 250 251 252 252 253 253 254 255 257 258 258 260 262 264 266 266 267 267 269 269 269 270 271 271 272 272 272 272 273 272 271 270
264 265 265 265 265 263 259 255 254 251 251 252 253 253 254 253 252 252 253 255 257 258 259 261 263 265 265 265 266 267 267 267 268 269 270 270 271 271 270 271 271 270 268 267
267 269 267 265 265 265 263 259 257 256 255 255 255 255 255 254 253 253 254 256 257 259 259 261 263 264 263 263 264 265 266 267 268 268 269 270 270 269 269 269 268 268 266 265
269 268 267 266 266 266 264 262 261 260 259 259 258 258 258 256 255 254 255 256 258 259 258 259 260 260 261 263 264 266 266 267 268 268 268 268 268 268 267 266 267 266 264 263
270 268 266 265 266 265 266 265 263 262 261 261 259 258 256 254 253 253 254 255 256 256 255 256 258 259 261 264 266 267 268 268 267 267 267 267 265 264 264 265 266 264 261 259
271 269 266 265 266 267 269 267 264 261 260 258 256 255 253 252 251 252 253 254 255 254 255 258 258 260 263 266 267 267 266 264 264 265 264 261 259 259 260 263 265 262 258 255
273 270 269 268 268 268 269 268 264 261 258 254 251 251 251 250 252 255 256 256 256 257 259 261 261 262 265 265 263 260 258 257 260 259 256 255 256 257 260 263 262 256 251 249
274 272 272 271 269 269 268 266 262 257 254 250 249 250 251 253 256 257 256 256 257 260 261 261 259 259 259 256 252 253 254 255 257 254 251 249 250 252 256 255 252 247 243 239
Height
5549 5555 5559 5564 5569 5573 5578 5583 5588 5594 5599 5605 5609 5613 5617 5621 5625 5629 5633 5637 5641 5645 5648 5651 5655 5658 5661 5664 5666 5669 5671 5673 5675 5677 5678 5678 5679 5679 5678 5677 5676 5674 5672 5670
5544 5548 5552 5556 5561 5565 5570 5576 5581 5586 5591 5596 5600 5604 5608 5612 5617 5621 5625 5629 5632 5635 5639 5642 5645 5648 5651 5653 5656 5658 5661 5663 5664 5666 5667 5667 5668 5667 5667 5666 5665 5663 5661 5659
5538 5542 5545 5550 5555 5559 5564 5569 5574 5578 5585 5588 5592 5596 5600 5604 5608 5612 5616 5620 5623 5626 5629 5632 5635 5638 5641 5643 5646 5648 5650 5651 5653 5655 5656 5656 5656 5656 5655 5655 5653 5652 5650 5648
5532 5536 5540 5546 5549 5553 5558 5562 5566 5571 5576 5580 5584 5588 5591 5595 5599 5602 5606 5610 5614 5617 5620 5623 5626 5628 5631 5633 5635 5637 5639 5640 5642 5643 5644 5645 5645 5645 5644 5643 5642 5640 5639 5637
5526 5529 5533 5539 5542 5546 5551 5555 5559 5563 5568 5572 5575 5579 5583 5586 5590 5593 5597 5601 5604 5607 5610 5613 5616 5618 5621 5623 5625 5626 5628 5630 5631 5632 5633 5633 5633 5633 5632 5631 5630 5629 5627 5625
5521 5524 5528 5533 5536 5540 5544 5548 5552 5556 5560 5563 5567 5571 5576 5578 5581 5585 5588 5591 5594 5598 5601 5603 5606 5608 5611 5612 5614 5616 5617 5619 5620 5621 5621 5622 5622 5621 5621 5620 5619 5617 5616 5613
5515 5518 5522 5526 5529 5533 5539 5542 5545 5548 5551 5555 5559 5563 5567 5570 5573 5576 5579 5582 5585 5588 5590 5593 5596 5598 5600 5602 5604 5605 5607 5608 5609 5610 5610 5610 5610 5610 5609 5608 5607 5606 5604 5602
5510 5513 5519 5520 5523 5527 5531 5534 5537 5540 5543 5547 5551 5555 5558 5561 5564 5567 5570 5573 5575 5578 5580 5583 5585 5588 5589 5591 5593 5595 5596 5597 5598 5598 5599 5599 5599 5598 5597 5597 5596 5594 5592 5589
5505 5509 5511 5513 5516 5520 5523 5526 5529 5533 5536 5539 5543 5546 5550 5553 5556 5559 5561 5564 5566 5569 5571 5573 5575 5577 5579 5581 5582 5583 5585 5586 5587 5587 5587 5587 5587 5586 5586 5585 5584 5582 5580 5578
5499 5502 5504 5507 5509 5512 5516 5519 5522 5525 5529 5532 5535 5539 5542 5545 5547 5550 5553 5555 5558 5560 5562 5564 5565 5567 5569 5570 5571 5573 5574 5575 5575 5576 5576 5576 5575 5575 5574 5573 5572 5571 5569 5567
5493 5496 5498 5500 5503 5505 5508 5512 5515 5518 5521 5525 5528 5531 5534 5536 5539 5542 5544 5547 5549 5550 5552 5554 5555 5557 5558 5560 5561 5562 5563 5564 5564 5565 5565 5565 5564 5564 5563 5562 5561 5560 5558 5556
5488 5490 5492 5494 5496 5498 5501 5504 5507 5510 5514 5517 5520 5523 5526 5528 5531 5533 5535 5538 5539 5541 5543 5544 5546 5547 5548 5549 5551 5552 5553 5553 5553 5554 5554 5554 5553 5553 5552 5551 5550 5548 5547 5545
5482 5484 5486 5487 5489 5492 5494 5497 5499 5502 5506 5509 5512 5515 5517 5520 5523 5525 5527 5528 5530 5532 5533 5535 5536 5537 5538 5539 5540 5541 5542 5542 5542 5542 5543 5543 5542 5542 5541 5540 5539 5537 5536 5534
5477 5478 5480 5481 5483 5485 5487 5489 5492 5495 5498 5501 5504 5506 5509 5512 5514 5516 5518 5519 5521 5522 5524 5525 5526 5527 5528 5529 5530 5530 5530 5531 5531 5531 5531 5531 5531 5530 5530 5529 5528 5526 5525 5523
5471 5472 5474 5475 5477 5478 5480 5482 5485 5487 5490 5493 5496 5498 5501 5503 5505 5507 5509 5510 5512 5513 5514 5515 5516 5517 5517 5518 5519 5519 5519 5519 5520 5520 5520 5520 5520 5519 5518 5517 5516 5515 5514 5513
5466 5467 5468 5469 5470 5472 5474 5476 5478 5480 5483 5485 5487 5490 5492 5494 5496 5498 5500 5501 5502 5503 5504 5505 5506 5507 5507 5508 5508 5508 5509 5509 5509 5509 5509 5509 5508 5508 5507 5506 5505 5505 5504 5503
5461 5462 5463 5464 5465 5466 5468 5469 5471 5473 5475 5477 5479 5481 5483 5485 5487 5489 5490 5491 5492 5494 5495 5495 5496 5497 5497 5498 5498 5498 5498 5498 5498 5498 5498 5498 5497 5497 5496 5495 5495 5494 5493 5492
5457 5457 5458 5459 5460 5460 5461 5463 5464 5466 5468 5470 5471 5473 5475 5476 5478 5479 5481 5482 5483 5484 5484 5485 5486 5487 5487 5488 5488 5488 5488 5488 5488 5488 5488 5487 5487 5486 5486 5485 5485 5484 5483 5482
5453 5453 5454 5454 5454 5455 5456 5457 5458 5459 5461 5462 5464 5465 5467 5468 5469 5470 5471 5472 5473 5474 5475 5476 5476 5477 5478 5478 5478 5478 5478 5478 5478 5478 5478 5477 5477 5477 5476 5476 5475 5475 5474 5473
5449 5449 5449 5449 5449 5449 5450 5451 5452 5453 5454 5455 5457 5458 5459 5460 5461 5462 5463 5464 5464 5465 5466 5467 5467 5468 5468 5468 5468 5468 5468 5468 5468 5468 5468 5468 5468 5467 5467 5467 5466 5466 5466 5465
5444 5444 5444 5444 5444 5444 5444 5445 5445 5446 5447 5448 5449 5450 5451 5452 5452 5454 5455 5456 5456 5457 5458 5458 5458 5459 5459 5459 5459 5460 5460 5460 5460 5459 5459 5459 5459 5459 5458 5458 5458 5458 5457 5457
5438 5438 5438 5438 5438 5438 5439 5439 5440 5440 5441 5442 5442 5443 5443 5444 5445 5446 5447 5448 5449 5449 5450 5450 5450 5450 5451 5451 5452 5452 5452 5452 5452 5451 5451 5451 5451 5451 5450 5450 5450 5450 5450 5450
5433 5433 5433 5433 5433 5433 5433 5433 5434 5434 5435 5435 5436 5436 5436 5437 5438 5439 5440 5440 5441 5441 5442 5442 5443 5443 5444 5444 5444 5444 5444 5444 5444 5444 5444 5444 5443 5443 5443 5443 5443 5443 5443 5443
5427 5427 5427 5427 5427 5427 5427 5427 5428 5428 5428 5428 5429 5429 5430 5431 5431 5432 5433 5433 5434 5434 5435 5436 5436 5437 5437 5437 5437 5437 5437 5437 5437 5437 5437 5436 5437 5437 5437 5437 5437 5436 5436 5437
5422 5422 5422 5422 5422 5422 5422 5422 5422 5422 5422 5422 5423 5423 5424 5425 5426 5426 5427 5427 5428 5428 5429 5430 5430 5430 5431 5431 5431 5431 5431 5431 5431 5431 5431 5430 5431 5431 5431 5431 5431 5431 5431 5431
5416 5416 5416 5416 5416 5416 5416 5416 5416 5416 5417 5417 5418 5418 5419 5419 5420 5421 5421 5422 5422 5423 5423 5423 5424 5424 5424 5424 5425 5425 5425 5425 5425 5425 5426 5426 5426 5426 5426 5427 5426 5426 5426 5427
5411 5410 5410 5410 5410 5410 5410 5410 5410 5411 5411 5412 5413 5413 5414 5414 5415 5415 5416 5416 5417 5417 5417 5417 5418 5418 5419 5419 5419 5420 5420 5420 5421 5421 5421 5421 5422 5422 5423 5423 5423 5423 5423 5423